Pensacola, FL

12:47 AM CDT on April 28, 2017 (GMT -0500)
Pensacola Regional

Weather History for KPNS - April, 2012

Change the Weather History Date:

Saturday, April 28, 2012

  Actual Average Record
Temperature  
Mean Temperature 72 °F 70 °F  
Max Temperature 80 °F 79 °F 91 °F (1987)
Min Temperature 64 °F 61 °F 46 °F (1992)
Degree Days  
Heating Degree Days 0 0  
Month to date heating degree days 11 51  
Since 1 July heating degree days 917 1535  
Cooling Degree Days 7 5  
Month to date cooling degree days 152 90  
Year to date cooling degree days 357 137  
Growing Degree Days 22 (Base 50)    
Moisture  
Dew Point 64 °F    
Average Humidity 76    
Maximum Humidity 93    
Minimum Humidity 58    
Precipitation  
Precipitation 0.00 in 0.14 in 1.78 in (1950)
Month to date precipitation 1.86 4.07  
Year to date precipitation 14.05 19.57  
Sea Level Pressure  
Sea Level Pressure 30.07 in    
Wind  
Wind Speed 7 mph (SSE)    
Max Wind Speed 15 mph    
Max Gust Speed 21 mph    
Visibility 10 miles    
Events      
T = Trace of Precipitation, MM = Missing Value Source: NWS Daily Summary

Daily Weather History Graph

Daily Weather History Graph

Search for Another Location

Airport or City:

Trip Planner

Search our weather history database for the weather conditions in past years. The results will help you decide how hot, cold, wet, or windy it might be!

Date:

Astronomy

Apr. 28, 2012 Rise Set
Actual Time 6:07 AM CDT 7:25 PM CDT
Civil Twilight 5:42 AM CDT 7:50 PM CDT
Nautical Twilight 5:12 AM CDT 8:20 PM CDT
Astronomical Twilight 4:40 AM CDT 8:52 PM CDT
Moon 11:48 AM CDT 12:46 AM CDT
Length of Visible Light 14h 08m
Length of Day
13h 17m
Waxing Crescent, 43% of the Moon is Illuminated
Apr 28
Waxing Crescent
Apr 29
First Quarter
May 5
Full
May 12
Last Quarter
May 20
New

Hourly Weather History & Observations

Time (CDT) Temp. Dew Point Humidity Pressure Visibility Wind Dir Wind Speed Gust Speed Precip Events Conditions
12:53 AM 66.9 °F 63.0 °F 87% 30.06 in 10.0 mi Calm Calm - N/A   Clear
1:53 AM 68.0 °F 64.4 °F 88% 30.04 in 10.0 mi SSE 4.6 mph - N/A   Clear
2:53 AM 66.0 °F 63.0 °F 90% 30.04 in 10.0 mi South 4.6 mph - 0.01 in   Clear
3:53 AM 66.9 °F 64.0 °F 90% 30.04 in 10.0 mi South 4.6 mph - N/A   Clear
4:53 AM 68.0 °F 64.0 °F 87% 30.04 in 10.0 mi Calm Calm - N/A   Clear
5:53 AM 66.9 °F 63.0 °F 87% 30.04 in 10.0 mi SSE 3.5 mph - N/A   Clear
6:53 AM 66.9 °F 64.0 °F 90% 30.07 in 10.0 mi Calm Calm - N/A   Clear
7:53 AM 73.0 °F 66.0 °F 79% 30.08 in 10.0 mi SSE 4.6 mph - 0.01 in   Clear
8:53 AM 75.0 °F 63.0 °F 66% 30.09 in 10.0 mi South 8.1 mph - N/A   Clear
9:53 AM 77.0 °F 63.0 °F 62% 30.10 in 10.0 mi SSE 11.5 mph - N/A   Scattered Clouds
10:01 AM 78.8 °F 62.6 °F 57% 30.10 in 10.0 mi SSE 12.7 mph - N/A   Mostly Cloudy
10:17 AM 78.8 °F 62.6 °F 57% 30.10 in 10.0 mi SSE 12.7 mph - N/A   Scattered Clouds
10:53 AM 79.0 °F 63.0 °F 58% 30.12 in 10.0 mi SE 10.4 mph - N/A   Scattered Clouds
11:53 AM 79.0 °F 64.0 °F 60% 30.11 in 10.0 mi SE 12.7 mph - N/A   Partly Cloudy
12:53 PM 79.0 °F 64.0 °F 60% 30.10 in 10.0 mi SE 10.4 mph 19.6 mph N/A   Mostly Cloudy
1:53 PM 78.1 °F 64.0 °F 62% 30.09 in 10.0 mi SSE 9.2 mph - N/A   Mostly Cloudy
2:53 PM 77.0 °F 64.9 °F 66% 30.08 in 10.0 mi SE 10.4 mph - N/A   Mostly Cloudy
3:53 PM 77.0 °F 63.0 °F 62% 30.06 in 10.0 mi South 9.2 mph - N/A   Scattered Clouds
4:53 PM 78.1 °F 64.0 °F 62% 30.06 in 10.0 mi South 10.4 mph - N/A   Scattered Clouds
5:53 PM 75.9 °F 64.0 °F 67% 30.06 in 10.0 mi SSE 12.7 mph - N/A   Clear
6:53 PM 73.0 °F 64.0 °F 73% 30.06 in 10.0 mi SSE 10.4 mph - N/A   Partly Cloudy
7:53 PM 71.1 °F 64.0 °F 78% 30.06 in 10.0 mi SSE 6.9 mph - N/A   Clear
8:53 PM 68.0 °F 63.0 °F 84% 30.07 in 10.0 mi SSE 4.6 mph - N/A   Clear
9:53 PM 68.0 °F 63.0 °F 84% 30.09 in 10.0 mi South 4.6 mph - N/A   Clear
10:53 PM 66.9 °F 63.0 °F 87% 30.08 in 10.0 mi South 3.5 mph - N/A   Clear
11:53 PM 66.0 °F 62.1 °F 87% 30.09 in 10.0 mi South 6.9 mph - N/A   Clear